MKJS

Montego Bay/Sangster International Airport

Airport
ICAO code
MKJS
IATA Code
MBJ
Summary
ICAO Region
CARSAM
ICAO Territory
Location

Montego Bay,

Serving
Montego Bay
Elevation
4 ft
Coordinates
18° 30' 4" N , 77° 54' 48" W
KCC
Airport WX
Tropical Revolving Storm
Metar
Observation
MKJS 070200Z 09004KT 9999 FEW022 25/20 Q1016
Station
Montego Bay / Sangster
Date/Time
2023-02-07 03:00:00
Wind direction
90°
Wind speed
04 kts
Lowest cloud amount
few clouds
Temperature
25°C
Dew point
20°C
Humidity
73%
QNH
1016 hPa
Weather condition
n/a

Description

International airport serving Montego Bay, Jamaica.

Climatology

Tropical Savanna climate (Köppen climate classification Aw)

Runways

Designator Length Width Surface Rops
7/25 2662 46 ASP Yes/Yes

Airport map

Aerial View

SKYbrary Partners:

Safety knowledge contributed by: